sat.trackr.live / text

‹ back to catalog

STARLINK-34356

NORAD 64303 · 2025-123N

PAYLOAD ACTIVE UNKNOWN

§ Identity

Operator
Country
US
Launch date
2025-06-08
Launch site
AFWTR
Launch vehicle
Mass (kg)
RCS (m²)

Purposes: comms

External: N2YO · Heavens-Above · Gunter

§ Orbital elements

Epoch: 2026-05-25T00:03:57.343392Z

Period
96.11 min
Inclination
70.0019°
Eccentricity
0.0002424
Mean motion
14.98333161 rev/d
Perigee alt
570.4 km
Apogee alt
573.7 km
Semi-major
6,950.2 km
B*
2.0742e-4
RAAN
1.8788°
Arg perigee
269.0070°
Mean anomaly
91.0812°
Rev number
5,305

§ Raw data

STARLINK-343561 64303U 25123N   26145.00274703  .00002383  00000+0  20742-3 0  99932 64303  70.0019   1.8788 0002424 269.0070  91.0812 14.98333161 53056

JSON: /api/v1/satellites/64303 · /tle

For live sub-satellite position, see the globe view (requires WebGL).

§ Visibility from observer

Set your observer location to see the next 7 days of passes ≥ 10°. The values pass through the URL so the page stays shareable.

No JS? Fill the form by hand. The geolocation button needs JavaScript.